Weather History for Spirit of St Louis, MO

Change the Weather History Date:

Sunday, January 27, 2013

  Actual Average Record
Temperature  
Mean Temperature 42 °F -  
Max Temperature 55 °F 38 °F 21 °F (2014)
Min Temperature 30 °F 20 °F 7 °F (2014)
Degree Days  
Heating Degree Days 24    
Moisture  
Dew Point 34 °F    
Average Humidity 82    
Maximum Humidity 93    
Minimum Humidity 56    
Precipitation  
Precipitation 0.23 in - - ()
Sea Level Pressure  
Sea Level Pressure 30.11 in    
Wind  
Wind Speed 6 mph (SE)    
Max Wind Speed 12 mph    
Max Gust Speed 21 mph    
Visibility 7 miles    
Events Rain    
Averages and records for this station are not official NWS values.
T = Trace of Precipitation, MM = Missing Value Source: NWS Daily Summary

Daily Weather History Graph

Daily Weather History Graph

Search for Another Location

Airport:

Trip Planner

Search our weather history database for the weather conditions in past years. The results will help you decide how hot, cold, wet, or windy it might be!

Date:

Astronomy

Jan. 27, 2013 Rise Set
Actual Time 7:12 AM CST 5:19 PM CST
Civil Twilight 6:43 AM CST 5:47 PM CST
Nautical Twilight 6:11 AM CST 6:19 PM CST
Astronomical Twilight 5:40 AM CST 6:50 PM CST
Moon 6:12 PM CST (1/27) 7:06 AM CST (1/27)
Length of Visible Light 11h 03m
Length of Day
10h 06m
Full, 100% of the Moon is Illuminated
Jan 27
Full
Feb 3
Last Quarter
Feb 10
New
Feb 17
First Quarter
Feb 25
Full

Hourly Weather History & Observations

Time (CST) Temp. Windchill Dew Point Humidity Pressure Visibility Wind Dir Wind Speed Gust Speed Precip Events Conditions
12:54 AM 30.0 °F 23.2 °F 16.0 °F 56% 30.31 in 10.0 mi SE 6.9 mph - N/A   Clear
1:54 AM 30.0 °F 24.1 °F 17.1 °F 59% 30.31 in 10.0 mi East 5.8 mph - N/A   Clear
2:54 AM 30.9 °F - 17.1 °F 57% 30.31 in 10.0 mi Calm Calm - N/A   Clear
3:54 AM 30.9 °F 26.2 °F 18.0 °F 59% 30.27 in 10.0 mi SE 4.6 mph - N/A   Scattered Clouds
4:54 AM 32.0 °F 27.5 °F 18.0 °F 56% 30.26 in 10.0 mi ESE 4.6 mph - N/A   Overcast
5:54 AM 30.9 °F 25.2 °F 23.0 °F 72% 30.25 in 8.0 mi ESE 5.8 mph - 0.01 in   Overcast
6:08 AM 30.2 °F 23.4 °F 24.8 °F 80% 30.22 in 7.0 mi ESE 6.9 mph - 0.00 in Rain Light Freezing Rain
6:52 AM 30.2 °F 23.4 °F 24.8 °F 80% 30.20 in 9.0 mi ESE 6.9 mph - 0.00 in   Overcast
6:54 AM 30.9 °F 24.3 °F 25.0 °F 79% 30.23 in 9.0 mi ESE 6.9 mph - 0.00 in   Overcast
7:25 AM 32.0 °F 25.6 °F 26.6 °F 80% 30.21 in 7.0 mi SE 6.9 mph - 0.01 in Rain Light Freezing Rain
7:54 AM 32.0 °F - 27.0 °F 82% 30.25 in 7.0 mi Calm Calm - 0.01 in Rain Light Freezing Rain
8:54 AM 33.1 °F 26.9 °F 28.0 °F 82% 30.22 in 2.5 mi East 6.9 mph - 0.01 in Rain Light Freezing Rain
9:11 AM 33.8 °F 28.6 °F 28.4 °F 81% 30.19 in 3.0 mi SE 5.8 mph - 0.01 in Rain Light Freezing Rain
9:26 AM 33.8 °F 28.6 °F 28.4 °F 81% 30.19 in 4.0 mi East 5.8 mph - 0.01 in Rain Light Rain
9:54 AM 33.1 °F 28.7 °F 30.0 °F 89% 30.22 in 3.0 mi Variable 4.6 mph - 0.02 in Rain Light Rain
10:13 AM 33.8 °F 29.6 °F 30.2 °F 87% 30.19 in 2.5 mi East 4.6 mph - 0.01 in Rain Light Rain
10:22 AM 33.8 °F 28.6 °F 30.2 °F 87% 30.18 in 1.2 mi East 5.8 mph - 0.02 in Rain Light Rain
10:29 AM 33.8 °F 27.7 °F 30.2 °F 87% 30.17 in 1.2 mi ESE 6.9 mph - 0.03 in Rain Rain
10:43 AM 33.8 °F 27.7 °F 30.2 °F 87% 30.17 in 2.0 mi ESE 6.9 mph - 0.04 in Rain Light Rain
10:54 AM 34.0 °F 28.0 °F 30.9 °F 89% 30.18 in 2.5 mi ESE 6.9 mph - 0.05 in Rain Light Rain
11:54 AM 35.1 °F 27.9 °F 33.1 °F 92% 30.13 in 2.5 mi ESE 9.2 mph - 0.11 in Rain Light Rain
12:54 PM 37.9 °F 33.5 °F 35.1 °F 89% 30.09 in 3.0 mi SE 5.8 mph - 0.01 in   Overcast
1:54 PM 39.9 °F 35.1 °F 36.0 °F 86% 30.05 in 4.0 mi SE 6.9 mph - N/A   Overcast
2:54 PM 42.1 °F 38.4 °F 39.0 °F 89% 30.02 in 5.0 mi SE 5.8 mph - 0.00 in   Overcast
3:52 PM 44.6 °F 43.1 °F 41.0 °F 87% 29.98 in 6.0 mi Variable 3.5 mph - 0.00 in   Overcast
3:54 PM 45.0 °F 43.5 °F 41.0 °F 86% 30.00 in 6.0 mi Variable 3.5 mph - 0.00 in   Overcast
4:54 PM 46.9 °F - 44.1 °F 90% 29.96 in 7.0 mi SSE 8.1 mph 17.3 mph 0.01 in Rain Light Rain
5:16 PM 48.2 °F - 44.6 °F 87% 29.94 in 10.0 mi SSE 8.1 mph - 0.00 in   Mostly Cloudy
5:54 PM 48.9 °F - 46.0 °F 90% 29.96 in 10.0 mi South 9.2 mph 16.1 mph 0.00 in   Mostly Cloudy
6:23 PM 48.2 °F - 46.4 °F 93% 29.94 in 10.0 mi South 10.4 mph 16.1 mph N/A   Mostly Cloudy
6:54 PM 50.0 °F - 46.0 °F 86% 29.97 in 10.0 mi South 11.5 mph 18.4 mph N/A   Overcast
7:54 PM 50.0 °F - 46.9 °F 89% 29.97 in 10.0 mi South 11.5 mph 20.7 mph N/A   Mostly Cloudy
8:20 PM 51.8 °F - 46.4 °F 82% 29.94 in 10.0 mi SSW 10.4 mph 19.6 mph N/A   Overcast
8:54 PM 51.1 °F - 46.9 °F 86% 29.97 in 10.0 mi SSW 10.4 mph - N/A   Overcast
9:31 PM 51.8 °F - 48.2 °F 88% 29.96 in 9.0 mi SSW 6.9 mph - N/A   Overcast
9:54 PM 52.0 °F - 48.0 °F 86% 29.97 in 9.0 mi South 8.1 mph - N/A   Overcast
10:54 PM 53.1 °F - 50.0 °F 89% 29.97 in 10.0 mi SSW 6.9 mph - 0.00 in   Overcast
11:54 PM 55.0 °F - 51.1 °F 86% 29.96 in 10.0 mi SSW 9.2 mph - N/A   Overcast